Regional Weather Roundup
Issued by NWS New Orleans/Baton Rouge, LA

Home | Current Version | Previous Version | Text Only | Print | Product List | Glossary On
Versions: 1 2 3 4 5 6 7 8 9 10 11 12 13 14 15 16 17 18 19 20 21 22 23 24 25 26 27
000
ASUS44 KLIX 271213
RWRLIX
NEW ORLEANS REGIONAL WEATHER ROUNDUP
NATIONAL WEATHER SERVICE NEW ORLEANS LA
700 AM CDT SAT MAY 27 2017

NOTE: "FAIR" INDICATES FEW OR NO CLOUDS BELOW 12,000 FEET WITH NO
      SIGNIFICANT WEATHER AND/OR OBSTRUCTIONS TO VISIBILITY.
      SKY/WX - SKY CONDITION AND SIGNIFICANT WEATHER.
      TMP - AIR TEMPERATURE.     DP    - DEWPOINT TEMPERATURE.
      RH  - RELATIVE HUMIDITY.   PRES  - PRESSURE.
      HI  - HEAT INDEX.          WCI   - WIND CHILL INDEX.

*  THESE STATIONS ARE NOT NWS OR FAA STATIONS AND ARE NOT UNDER
   NWS QUALITY CONTROL.

LAZ038-040-048-061>063-065>067-069-271300-
SOUTHEAST LOUISIANA

CITY           SKY/WX    TMP DP  RH WIND       PRES   REMARKS
N.O. INTL ARPT CLOUDY    78  75  90 S5        30.01R
6HR MIN TEMP:  76; 6HR MAX TEMP:  78;

N.O. LAKEFRONT CLOUDY    79  75  87 S6        30.02R
6HR MIN TEMP:  75; 6HR MAX TEMP:  79;

N.O. DOWNTOWN*   N/A     80  75  84 S6          N/A
6HR MIN TEMP:  78; 6HR MAX TEMP:  80;

RESERVE*       CLOUDY    79  76  90 SE7       30.01R
6HR MIN TEMP:  77; 6HR MAX TEMP:  79;

SLIDELL        CLOUDY    78  74  87 SE3       30.02R
6HR MIN TEMP:  76; 6HR MAX TEMP:  78;

BATON ROUGE    CLOUDY    78  75  90 S7        30.00R
6HR MIN TEMP:  76; 6HR MAX TEMP:  78;

BOOTHVILLE     CLOUDY   N/A N/A N/A S7        30.02R HAZE
BELLE CHASSE   CLOUDY   N/A N/A N/A S8        30.01R
BOGALUSA*      CLOUDY    76  72  87 CALM      30.04R
6HR MIN TEMP:  73; 6HR MAX TEMP:  76;

GALLIANO*      CLOUDY    78  74  85 S8        30.00R
6HR MIN TEMP:  76; 6HR MAX TEMP:  78;

NEW ROADS*     CLOUDY    76  74  94 SE3       30.00R
6HR MIN TEMP:  75; 6HR MAX TEMP:  76;

GONZALES*      CLOUDY    77  75  93 CALM      29.99R
6HR MIN TEMP:  76; 6HR MAX TEMP:  77;

HAMMOND*       CLOUDY    77  72  83 SE3       30.01R
HOUMA*         CLOUDY    79  75  89 S7        30.01R
PORT FOURCHON* CLOUDY    79  75  89 S8        30.01R FOG

$$

MSZ070-080>082-271300-
SOUTHERN MISSISSIPPI

CITY           SKY/WX    TMP DP  RH WIND       PRES   REMARKS
MCCOMB         CLOUDY    74  70  87 CALM      30.02R
6HR MIN TEMP:  71; 6HR MAX TEMP:  74;

GULFPORT       CLOUDY    78  74  87 S3        30.03R
6HR MIN TEMP:  77; 6HR MAX TEMP:  78;

BILOXI         CLOUDY    77  73  88 SW9       30.03R
PASCAGOULA     CLOUDY    77  72  84 CALM      30.04R
6HR MIN TEMP:  76; 6HR MAX TEMP:  78;

STENNIS ARPT*  CLOUDY    75  73  94 CALM      30.03

$$

COASTAL OBSERVATIONS
LAKE AND NEARSHORE STATIONS

STATION/POSITION TIME  TEMP    WIND        PRES    WAVE
                       AIR SEA DIR/SP/G            HT/PER
                 (UTC) (F)     (DEG/KT/KT) (MB)    (FT/S)
PASCAGOULA       1148   78     230/  6/  8 1016.8
WAVELAND YACHT   1142   77 78  230/  4/  7 1016.6
GRAND ISLE       1148   78 79  210/  6/ 10 1016.1
SOUTHWEST PASS   1148          190/  4/  5   N/A
NEW CANAL        1148   78 79  200/  4/  9 1016.2
SHELL BEACH      1142   78 80  190/  6/  9 1016.4

OFFSHORE STATIONS

STATION/POSITION TIME  TEMP    WIND        PRES    WAVE
                       AIR SEA DIR/SP/G            HT/PER
                 (UTC) (F)     (DEG/KT/KT) (MB)    (FT/S)
64 S DAUPHIN ISL 1150   78 78  200/ 12/ 14 1017.0    3/ 5

$$





USA.gov is the U.S. government's official web portal to all federal, state and local government web resources and services.